Time,TemperatureF,DewpointF,PressureIn,WindDirection,WindDirectionDegrees,WindSpeedMPH,WindSpeedGustMPH,Humidity,HourlyPrecipIn,Conditions,Clouds,dailyrainin,SoftwareType,DateUTC
2013-05-25 00:00:00,76.8,69.2,30.12,East,98,0.0,0.0,78,0.00,,,0.00,VWS V14.01,2013-05-25 04:00:00,
2013-05-25 00:01:00,76.7,69.1,30.13,East,98,0.0,0.0,78,0.00,,,0.00,VWS V14.01,2013-05-25 04:01:00,
2013-05-25 00:05:00,76.5,69.2,30.12,East,98,0.0,0.0,78,0.00,,,0.00,VWS V14.01,2013-05-25 04:05:00,
2013-05-25 00:06:00,76.6,69.2,30.13,East,98,0.0,0.0,78,0.00,,,0.00,VWS V14.01,2013-05-25 04:06:00,
2013-05-25 00:10:00,76.4,69.1,30.12,East,98,0.0,0.0,78,0.00,,,0.00,VWS V14.01,2013-05-25 04:10:00,
2013-05-25 00:11:00,76.3,69.0,30.13,East,98,0.0,0.0,78,0.00,,,0.00,VWS V14.01,2013-05-25 04:11:00,
2013-05-25 00:15:00,76.2,69.0,30.12,East,98,0.0,0.0,78,0.00,,,0.00,VWS V14.01,2013-05-25 04:15:00,
2013-05-25 00:16:00,76.2,69.0,30.13,East,98,0.0,0.0,78,0.00,,,0.00,VWS V14.01,2013-05-25 04:16:00,
2013-05-25 00:20:00,76.0,69.0,30.12,East,98,0.0,0.0,79,0.00,,,0.00,VWS V14.01,2013-05-25 04:20:00,
2013-05-25 00:21:00,76.0,69.0,30.13,East,98,0.0,0.0,79,0.00,,,0.00,VWS V14.01,2013-05-25 04:21:00,
2013-05-25 00:25:00,75.9,69.0,30.12,East,98,0.0,0.0,79,0.00,,,0.00,VWS V14.01,2013-05-25 04:25:00,
2013-05-25 00:26:00,75.9,69.0,30.13,East,98,0.0,0.0,79,0.00,,,0.00,VWS V14.01,2013-05-25 04:26:00,
2013-05-25 00:30:00,75.7,69.0,30.12,East,98,0.0,0.0,80,0.00,,,0.00,VWS V14.01,2013-05-25 04:30:00,
2013-05-25 00:31:00,75.7,69.0,30.13,East,98,0.0,0.0,80,0.00,,,0.00,VWS V14.01,2013-05-25 04:31:00,
2013-05-25 00:35:00,75.5,69.0,30.12,East,98,0.0,0.0,80,0.00,,,0.00,VWS V14.01,2013-05-25 04:35:00,
2013-05-25 00:36:00,75.5,68.9,30.13,East,98,0.0,0.0,80,0.00,,,0.00,VWS V14.01,2013-05-25 04:36:00,
2013-05-25 00:40:00,75.3,68.8,30.12,East,98,0.0,0.0,80,0.00,,,0.00,VWS V14.01,2013-05-25 04:40:00,
2013-05-25 00:41:00,75.4,68.9,30.13,East,98,0.0,0.0,80,0.00,,,0.00,VWS V14.01,2013-05-25 04:41:00,
2013-05-25 00:45:00,75.3,68.8,30.12,East,98,0.0,0.0,80,0.00,,,0.00,VWS V14.01,2013-05-25 04:45:00,
2013-05-25 00:46:00,75.4,68.9,30.13,East,98,0.0,0.0,80,0.00,,,0.00,VWS V14.01,2013-05-25 04:46:00,
2013-05-25 00:50:00,75.3,68.8,30.13,East,98,0.0,0.0,80,0.00,,,0.00,VWS V14.01,2013-05-25 04:50:00,
2013-05-25 00:55:00,75.3,69.0,30.13,East,98,0.0,0.0,81,0.00,,,0.00,VWS V14.01,2013-05-25 04:55:00,
2013-05-25 01:00:00,75.0,68.9,30.13,East,98,0.0,0.0,81,0.00,,,0.00,VWS V14.01,2013-05-25 05:00:00,
2013-05-25 01:05:00,74.9,68.8,30.12,East,98,0.0,0.0,81,0.00,,,0.00,VWS V14.01,2013-05-25 05:05:00,
2013-05-25 01:10:00,74.8,68.9,30.12,East,98,0.0,0.0,82,0.00,,,0.00,VWS V14.01,2013-05-25 05:10:00,
2013-05-25 01:15:00,74.8,68.8,30.12,East,98,0.0,0.0,82,0.00,,,0.00,VWS V14.01,2013-05-25 05:15:00,
2013-05-25 01:20:00,74.7,68.8,30.12,East,98,0.0,0.0,82,0.00,,,0.00,VWS V14.01,2013-05-25 05:20:00,
2013-05-25 01:25:00,74.6,68.8,30.12,East,98,0.0,0.0,82,0.00,,,0.00,VWS V14.01,2013-05-25 05:25:00,
2013-05-25 01:30:00,74.4,68.7,30.12,East,98,0.0,0.0,82,0.00,,,0.00,VWS V14.01,2013-05-25 05:30:00,
2013-05-25 01:35:00,74.3,68.8,30.12,East,98,0.0,0.0,83,0.00,,,0.00,VWS V14.01,2013-05-25 05:35:00,
2013-05-25 01:40:00,74.1,68.7,30.12,East,98,0.0,0.0,83,0.00,,,0.00,VWS V14.01,2013-05-25 05:40:00,
2013-05-25 01:45:00,73.9,68.7,30.12,East,98,0.0,0.0,84,0.00,,,0.00,VWS V14.01,2013-05-25 05:45:00,
2013-05-25 01:50:00,73.7,68.6,30.12,East,98,0.0,0.0,84,0.00,,,0.00,VWS V14.01,2013-05-25 05:50:00,
2013-05-25 01:55:00,73.6,68.5,30.12,East,98,0.0,0.0,84,0.00,,,0.00,VWS V14.01,2013-05-25 05:55:00,
2013-05-25 02:00:00,73.5,68.6,30.12,East,98,0.0,0.0,84,0.00,,,0.00,VWS V14.01,2013-05-25 06:00:00,
2013-05-25 02:05:00,73.4,68.5,30.12,East,98,0.0,0.0,85,0.00,,,0.00,VWS V14.01,2013-05-25 06:05:00,
2013-05-25 02:10:00,73.3,68.6,30.12,East,98,0.0,0.0,85,0.00,,,0.00,VWS V14.01,2013-05-25 06:10:00,
2013-05-25 02:15:00,73.2,68.5,30.11,East,98,0.0,0.0,85,0.00,,,0.00,VWS V14.01,2013-05-25 06:15:00,
2013-05-25 02:20:00,73.1,68.5,30.11,East,98,0.0,0.0,86,0.00,,,0.00,VWS V14.01,2013-05-25 06:20:00,
2013-05-25 02:25:00,73.1,68.6,30.12,East,98,0.0,0.0,86,0.00,,,0.00,VWS V14.01,2013-05-25 06:25:00,
2013-05-25 02:30:00,73.0,68.6,30.11,East,98,0.0,0.0,86,0.00,,,0.00,VWS V14.01,2013-05-25 06:30:00,
2013-05-25 02:35:00,72.9,68.5,30.11,East,98,0.0,0.0,86,0.00,,,0.00,VWS V14.01,2013-05-25 06:35:00,
2013-05-25 02:40:00,72.8,68.4,30.11,East,98,0.0,0.0,86,0.00,,,0.00,VWS V14.01,2013-05-25 06:40:00,
2013-05-25 02:45:00,72.6,68.3,30.11,East,98,0.0,0.0,86,0.00,,,0.00,VWS V14.01,2013-05-25 06:45:00,
2013-05-25 02:50:00,72.6,68.4,30.11,East,98,0.0,0.0,87,0.00,,,0.00,VWS V14.01,2013-05-25 06:50:00,
2013-05-25 02:55:00,72.5,68.3,30.11,East,98,0.0,0.0,87,0.00,,,0.00,VWS V14.01,2013-05-25 06:55:00,
2013-05-25 03:00:00,72.4,68.3,30.11,East,98,0.0,0.0,87,0.00,,,0.00,VWS V14.01,2013-05-25 07:00:00,
2013-05-25 03:05:00,72.4,68.4,30.11,East,98,0.0,0.0,87,0.00,,,0.00,VWS V14.01,2013-05-25 07:05:00,
2013-05-25 03:10:00,72.2,68.2,30.11,East,98,0.0,0.0,87,0.00,,,0.00,VWS V14.01,2013-05-25 07:10:00,
2013-05-25 03:15:00,72.1,68.2,30.11,East,98,0.0,0.0,88,0.00,,,0.00,VWS V14.01,2013-05-25 07:15:00,
2013-05-25 03:20:00,72.1,68.3,30.11,East,98,0.0,0.0,88,0.00,,,0.00,VWS V14.01,2013-05-25 07:20:00,
2013-05-25 03:25:00,71.9,68.1,30.11,East,98,0.0,0.0,88,0.00,,,0.00,VWS V14.01,2013-05-25 07:25:00,
2013-05-25 03:30:00,71.9,68.1,30.11,East,98,0.0,0.0,88,0.00,,,0.00,VWS V14.01,2013-05-25 07:30:00,
2013-05-25 03:35:00,71.8,68.1,30.10,East,98,0.0,0.0,88,0.00,,,0.00,VWS V14.01,2013-05-25 07:35:00,
2013-05-25 03:40:00,71.7,68.0,30.10,East,98,0.0,0.0,88,0.00,,,0.00,VWS V14.01,2013-05-25 07:40:00,
2013-05-25 03:45:00,71.7,68.0,30.10,East,98,0.0,0.0,88,0.00,,,0.00,VWS V14.01,2013-05-25 07:45:00,
2013-05-25 03:50:00,71.6,67.9,30.10,East,98,0.0,0.0,88,0.00,,,0.00,VWS V14.01,2013-05-25 07:50:00,
2013-05-25 03:55:00,71.6,67.9,30.10,East,98,0.0,0.0,88,0.00,,,0.00,VWS V14.01,2013-05-25 07:55:00,
2013-05-25 04:00:00,71.5,67.9,30.10,East,98,0.0,0.0,88,0.00,,,0.00,VWS V14.01,2013-05-25 08:00:00,
2013-05-25 04:05:00,71.4,67.8,30.10,East,98,0.0,0.0,88,0.00,,,0.00,VWS V14.01,2013-05-25 08:05:00,
2013-05-25 04:10:00,71.3,67.7,30.10,East,98,0.0,0.0,88,0.00,,,0.00,VWS V14.01,2013-05-25 08:10:00,
2013-05-25 04:15:00,71.1,67.5,30.10,East,98,0.0,0.0,88,0.00,,,0.00,VWS V14.01,2013-05-25 08:15:00,
2013-05-25 04:20:00,71.1,67.5,30.10,East,98,0.0,0.0,88,0.00,,,0.00,VWS V14.01,2013-05-25 08:20:00,
2013-05-25 04:25:00,71.0,67.5,30.10,East,98,0.0,0.0,89,0.00,,,0.00,VWS V14.01,2013-05-25 08:25:00,
2013-05-25 04:30:00,70.9,67.4,30.10,East,98,0.0,0.0,89,0.00,,,0.00,VWS V14.01,2013-05-25 08:30:00,
2013-05-25 04:35:00,70.8,67.4,30.11,East,98,0.0,0.0,89,0.00,,,0.00,VWS V14.01,2013-05-25 08:35:00,
2013-05-25 04:40:00,70.7,67.3,30.11,East,98,0.0,0.0,89,0.00,,,0.00,VWS V14.01,2013-05-25 08:40:00,
2013-05-25 04:45:00,70.6,67.2,30.11,East,98,0.0,0.0,89,0.00,,,0.00,VWS V14.01,2013-05-25 08:45:00,
2013-05-25 04:50:00,70.6,67.2,30.11,East,98,0.0,0.0,89,0.00,,,0.00,VWS V14.01,2013-05-25 08:50:00,
2013-05-25 04:55:00,70.5,67.2,30.11,East,98,0.0,0.0,89,0.00,,,0.00,VWS V14.01,2013-05-25 08:55:00,
2013-05-25 05:00:00,70.5,67.2,30.11,East,98,0.0,0.0,89,0.00,,,0.00,VWS V14.01,2013-05-25 09:00:00,
2013-05-25 05:05:00,70.4,67.1,30.11,East,98,0.0,0.0,89,0.00,,,0.00,VWS V14.01,2013-05-25 09:05:00,
2013-05-25 05:10:00,70.3,67.1,30.11,East,98,0.0,0.0,90,0.00,,,0.00,VWS V14.01,2013-05-25 09:10:00,
2013-05-25 05:15:00,70.2,67.1,30.12,East,98,0.0,0.0,90,0.00,,,0.00,VWS V14.01,2013-05-25 09:15:00,
2013-05-25 05:20:00,70.1,67.0,30.11,East,98,0.0,0.0,90,0.00,,,0.00,VWS V14.01,2013-05-25 09:20:00,
2013-05-25 05:25:00,70.0,66.9,30.11,East,98,0.0,0.0,90,0.00,,,0.00,VWS V14.01,2013-05-25 09:25:00,
2013-05-25 05:30:00,70.0,66.8,30.11,East,98,0.0,0.0,90,0.00,,,0.00,VWS V14.01,2013-05-25 09:30:00,
2013-05-25 05:35:00,69.8,66.7,30.11,East,98,0.0,0.0,90,0.00,,,0.00,VWS V14.01,2013-05-25 09:35:00,
2013-05-25 05:40:00,69.8,66.7,30.11,East,98,0.0,0.0,90,0.00,,,0.00,VWS V14.01,2013-05-25 09:40:00,
2013-05-25 05:45:00,69.8,66.7,30.11,East,98,0.0,0.0,90,0.00,,,0.00,VWS V14.01,2013-05-25 09:45:00,
2013-05-25 05:50:00,69.7,66.6,30.12,East,98,0.0,0.0,90,0.00,,,0.00,VWS V14.01,2013-05-25 09:50:00,
2013-05-25 05:55:00,69.7,66.7,30.12,East,98,0.0,0.0,90,0.00,,,0.00,VWS V14.01,2013-05-25 09:55:00,
2013-05-25 06:00:00,69.5,66.5,30.12,East,98,0.0,0.0,90,0.00,,,0.00,VWS V14.01,2013-05-25 10:00:00,
2013-05-25 06:05:00,69.6,66.6,30.12,East,98,0.0,0.0,90,0.00,,,0.00,VWS V14.01,2013-05-25 10:05:00,
2013-05-25 06:10:00,69.5,66.5,30.13,East,98,0.0,0.0,90,0.00,,,0.00,VWS V14.01,2013-05-25 10:10:00,
2013-05-25 06:15:00,69.6,66.6,30.13,East,98,0.0,0.0,90,0.00,,,0.00,VWS V14.01,2013-05-25 10:15:00,
2013-05-25 06:20:00,69.5,66.5,30.13,East,98,0.0,0.0,90,0.00,,,0.00,VWS V14.01,2013-05-25 10:20:00,
2013-05-25 06:25:00,69.4,66.5,30.13,East,98,0.0,0.0,90,0.00,,,0.00,VWS V14.01,2013-05-25 10:25:00,
2013-05-25 06:30:00,69.5,66.6,30.13,East,98,0.0,0.0,90,0.00,,,0.00,VWS V14.01,2013-05-25 10:30:00,
2013-05-25 06:34:00,69.4,66.5,30.14,East,98,0.0,0.0,90,0.00,,,0.00,VWS V14.01,2013-05-25 10:34:00,
2013-05-25 06:35:00,69.3,66.4,30.14,East,98,0.0,0.0,90,0.00,,,0.00,VWS V14.01,2013-05-25 10:35:00,
2013-05-25 06:39:00,69.4,66.5,30.14,East,98,0.0,0.0,91,0.00,,,0.00,VWS V14.01,2013-05-25 10:39:00,
2013-05-25 06:40:00,69.4,66.5,30.14,East,98,0.0,0.0,91,0.00,,,0.00,VWS V14.01,2013-05-25 10:40:00,
2013-05-25 06:44:00,69.3,66.4,30.14,East,98,0.0,0.0,91,0.00,,,0.00,VWS V14.01,2013-05-25 10:44:00,
2013-05-25 06:45:00,69.4,66.5,30.14,East,98,0.0,0.0,91,0.00,,,0.00,VWS V14.01,2013-05-25 10:45:00,
2013-05-25 06:49:00,69.3,66.4,30.14,East,98,0.0,0.0,91,0.00,,,0.00,VWS V14.01,2013-05-25 10:49:00,
2013-05-25 06:50:00,69.3,66.4,30.14,East,98,0.0,0.0,91,0.00,,,0.00,VWS V14.01,2013-05-25 10:50:00,
2013-05-25 06:54:00,69.3,66.5,30.15,East,98,0.0,0.0,91,0.00,,,0.00,VWS V14.01,2013-05-25 10:54:00,
2013-05-25 06:55:00,69.3,66.5,30.15,East,98,0.0,0.0,91,0.00,,,0.00,VWS V14.01,2013-05-25 10:55:00,
2013-05-25 06:59:00,69.3,66.5,30.15,East,98,0.0,0.0,91,0.00,,,0.00,VWS V14.01,2013-05-25 10:59:00,
2013-05-25 07:00:00,69.2,66.4,30.15,East,98,0.0,0.0,91,0.00,,,0.00,VWS V14.01,2013-05-25 11:00:00,
2013-05-25 07:04:00,69.2,66.4,30.15,East,98,0.0,0.0,91,0.00,,,0.00,VWS V14.01,2013-05-25 11:04:00,
2013-05-25 07:05:00,69.3,66.5,30.15,East,98,0.0,0.0,91,0.00,,,0.00,VWS V14.01,2013-05-25 11:05:00,
2013-05-25 07:09:00,69.3,66.5,30.15,East,98,0.0,0.0,91,0.00,,,0.00,VWS V14.01,2013-05-25 11:09:00,
2013-05-25 07:10:00,69.3,66.5,30.15,East,98,0.0,0.0,91,0.00,,,0.00,VWS V14.01,2013-05-25 11:10:00,
2013-05-25 07:14:00,69.3,66.6,30.15,East,98,0.0,0.0,91,0.00,,,0.00,VWS V14.01,2013-05-25 11:14:00,
2013-05-25 07:15:00,69.3,66.6,30.15,East,98,0.0,0.0,91,0.00,,,0.00,VWS V14.01,2013-05-25 11:15:00,
2013-05-25 07:19:00,69.4,66.7,30.15,East,98,0.0,0.0,91,0.00,,,0.00,VWS V14.01,2013-05-25 11:19:00,
2013-05-25 07:20:00,69.5,66.8,30.16,East,98,0.0,0.0,91,0.00,,,0.00,VWS V14.01,2013-05-25 11:20:00,
2013-05-25 07:24:00,69.4,66.7,30.15,East,98,0.0,0.0,91,0.00,,,0.00,VWS V14.01,2013-05-25 11:24:00,
2013-05-25 07:25:00,69.4,66.7,30.16,East,98,0.0,0.0,91,0.00,,,0.00,VWS V14.01,2013-05-25 11:25:00,
2013-05-25 07:29:00,69.5,66.9,30.16,East,98,0.0,0.0,91,0.00,,,0.00,VWS V14.01,2013-05-25 11:29:00,
2013-05-25 07:30:00,69.6,67.0,30.16,East,98,0.0,0.0,91,0.00,,,0.00,VWS V14.01,2013-05-25 11:30:00,
2013-05-25 07:34:00,69.7,67.1,30.16,East,98,0.0,0.0,91,0.00,,,0.00,VWS V14.01,2013-05-25 11:34:00,
2013-05-25 07:35:00,69.7,67.1,30.16,East,98,0.0,0.0,91,0.00,,,0.00,VWS V14.01,2013-05-25 11:35:00,
2013-05-25 07:39:00,69.9,67.3,30.16,East,98,0.0,0.0,92,0.00,,,0.00,VWS V14.01,2013-05-25 11:39:00,
2013-05-25 07:40:00,69.9,67.3,30.16,East,98,0.0,0.0,92,0.00,,,0.00,VWS V14.01,2013-05-25 11:40:00,
2013-05-25 07:44:00,70.1,67.6,30.16,East,98,0.0,0.0,92,0.00,,,0.00,VWS V14.01,2013-05-25 11:44:00,
2013-05-25 07:45:00,70.2,67.7,30.17,East,98,0.0,0.0,92,0.00,,,0.00,VWS V14.01,2013-05-25 11:45:00,
2013-05-25 07:49:00,70.4,67.9,30.17,East,98,0.0,0.0,92,0.00,,,0.00,VWS V14.01,2013-05-25 11:49:00,
2013-05-25 07:50:00,70.5,68.0,30.17,East,98,0.0,0.0,92,0.00,,,0.00,VWS V14.01,2013-05-25 11:50:00,
2013-05-25 07:54:00,70.6,68.1,30.16,East,98,0.0,0.0,92,0.00,,,0.00,VWS V14.01,2013-05-25 11:54:00,
2013-05-25 07:55:00,70.7,68.2,30.16,East,98,0.0,0.0,92,0.00,,,0.00,VWS V14.01,2013-05-25 11:55:00,
2013-05-25 07:59:00,70.9,68.4,30.17,East,98,0.0,0.0,92,0.00,,,0.00,VWS V14.01,2013-05-25 11:59:00,
2013-05-25 08:00:00,70.9,68.3,30.17,East,98,0.0,0.0,92,0.00,,,0.00,VWS V14.01,2013-05-25 12:00:00,
2013-05-25 08:04:00,71.1,68.5,30.17,East,98,0.0,0.0,92,0.00,,,0.00,VWS V14.01,2013-05-25 12:04:00,
2013-05-25 08:05:00,71.2,68.5,30.17,East,98,0.0,0.0,91,0.00,,,0.00,VWS V14.01,2013-05-25 12:05:00,
2013-05-25 08:09:00,71.4,68.7,30.17,East,98,0.0,0.0,91,0.00,,,0.00,VWS V14.01,2013-05-25 12:09:00,
2013-05-25 08:10:00,71.5,68.8,30.17,East,98,0.0,0.0,91,0.00,,,0.00,VWS V14.01,2013-05-25 12:10:00,
2013-05-25 08:14:00,71.6,68.8,30.17,East,98,0.0,0.0,91,0.00,,,0.00,VWS V14.01,2013-05-25 12:14:00,
2013-05-25 08:15:00,71.8,69.0,30.17,East,98,0.0,0.0,91,0.00,,,0.00,VWS V14.01,2013-05-25 12:15:00,
2013-05-25 08:19:00,71.9,69.0,30.17,East,98,0.0,0.0,91,0.00,,,0.00,VWS V14.01,2013-05-25 12:19:00,
2013-05-25 08:20:00,72.0,69.1,30.17,East,98,0.0,0.0,91,0.00,,,0.00,VWS V14.01,2013-05-25 12:20:00,
2013-05-25 08:24:00,72.2,69.1,30.18,East,98,0.0,0.0,90,0.00,,,0.00,VWS V14.01,2013-05-25 12:24:00,
2013-05-25 08:25:00,72.4,69.3,30.17,East,98,0.0,0.0,90,0.00,,,0.00,VWS V14.01,2013-05-25 12:25:00,
2013-05-25 08:29:00,72.5,69.1,30.18,East,98,0.0,0.0,89,0.00,,,0.00,VWS V14.01,2013-05-25 12:29:00,
2013-05-25 08:30:00,72.7,69.2,30.18,East,98,0.0,0.0,89,0.00,,,0.00,VWS V14.01,2013-05-25 12:30:00,
2013-05-25 08:34:00,72.9,69.0,30.18,East,98,0.0,0.0,88,0.00,,,0.00,VWS V14.01,2013-05-25 12:34:00,
2013-05-25 08:35:00,73.1,68.7,30.18,East,98,0.0,0.0,86,0.00,,,0.00,VWS V14.01,2013-05-25 12:35:00,
2013-05-25 08:39:00,73.3,68.7,30.18,East,98,0.0,0.0,86,0.00,,,0.00,VWS V14.01,2013-05-25 12:39:00,
2013-05-25 08:40:00,73.5,68.4,30.18,East,98,0.0,0.0,84,0.00,,,0.00,VWS V14.01,2013-05-25 12:40:00,
2013-05-25 08:44:00,73.8,68.7,30.18,East,98,0.0,0.0,84,0.00,,,0.00,VWS V14.01,2013-05-25 12:44:00,
2013-05-25 08:45:00,74.0,68.5,30.18,East,98,0.0,0.0,83,0.00,,,0.00,VWS V14.01,2013-05-25 12:45:00,
2013-05-25 08:49:00,74.2,68.6,30.18,East,98,0.0,0.0,83,0.00,,,0.00,VWS V14.01,2013-05-25 12:49:00,
2013-05-25 08:50:00,74.3,68.5,30.19,East,98,0.0,0.0,82,0.00,,,0.00,VWS V14.01,2013-05-25 12:50:00,
2013-05-25 08:54:00,74.4,68.2,30.19,East,98,0.0,0.0,81,0.00,,,0.00,VWS V14.01,2013-05-25 12:54:00,
2013-05-25 08:55:00,74.7,68.2,30.19,East,98,0.0,0.0,80,0.00,,,0.00,VWS V14.01,2013-05-25 12:55:00,
2013-05-25 08:59:00,75.0,68.3,30.19,East,98,0.0,0.0,80,0.00,,,0.00,VWS V14.01,2013-05-25 12:59:00,
2013-05-25 09:00:00,75.2,68.2,30.19,East,98,0.0,0.0,79,0.00,,,0.00,VWS V14.01,2013-05-25 13:00:00,
2013-05-25 09:04:00,75.4,67.2,30.19,East,98,0.0,0.0,76,0.00,,,0.00,VWS V14.01,2013-05-25 13:04:00,
2013-05-25 09:05:00,75.6,67.6,30.19,East,98,0.0,0.0,76,0.00,,,0.00,VWS V14.01,2013-05-25 13:05:00,
2013-05-25 09:09:00,75.9,68.0,30.19,East,98,0.0,0.0,77,0.00,,,0.00,VWS V14.01,2013-05-25 13:09:00,
2013-05-25 09:10:00,75.9,68.2,30.20,East,98,0.0,0.0,77,0.00,,,0.00,VWS V14.01,2013-05-25 13:10:00,
2013-05-25 09:14:00,76.1,67.8,30.20,ENE,75,2.7,4.4,75,0.00,,,0.00,VWS V14.01,2013-05-25 13:14:00,
2013-05-25 09:15:00,76.5,68.0,30.20,ENE,75,0.0,3.2,75,0.00,,,0.00,VWS V14.01,2013-05-25 13:15:00,
2013-05-25 09:19:00,76.8,67.7,30.20,ENE,75,0.0,0.0,73,0.00,,,0.00,VWS V14.01,2013-05-25 13:19:00,
2013-05-25 09:20:00,76.9,67.4,30.20,ENE,75,0.0,0.0,72,0.00,,,0.00,VWS V14.01,2013-05-25 13:20:00,
2013-05-25 09:24:00,77.2,68.1,30.20,ENE,75,0.0,0.0,74,0.00,,,0.00,VWS V14.01,2013-05-25 13:24:00,
2013-05-25 09:25:00,77.3,68.2,30.20,ENE,75,0.0,0.0,74,0.00,,,0.00,VWS V14.01,2013-05-25 13:25:00,
2013-05-25 09:29:00,77.7,68.3,30.20,ENE,75,0.0,0.0,73,0.00,,,0.00,VWS V14.01,2013-05-25 13:29:00,
2013-05-25 09:30:00,77.8,68.1,30.20,ENE,75,0.0,0.0,72,0.00,,,0.00,VWS V14.01,2013-05-25 13:30:00,
2013-05-25 09:34:00,78.1,68.2,30.20,ENE,75,0.0,0.0,72,0.00,,,0.00,VWS V14.01,2013-05-25 13:34:00,
2013-05-25 09:35:00,78.1,67.2,30.20,ENE,75,0.0,0.0,69,0.00,,,0.00,VWS V14.01,2013-05-25 13:35:00,
2013-05-25 09:39:00,78.4,67.8,30.20,ENE,75,0.0,0.0,70,0.00,,,0.00,VWS V14.01,2013-05-25 13:39:00,
2013-05-25 09:40:00,78.5,68.0,30.20,ENE,75,0.0,0.0,70,0.00,,,0.00,VWS V14.01,2013-05-25 13:40:00,
2013-05-25 09:44:00,78.8,68.8,30.20,ENE,75,0.0,0.0,71,0.00,,,0.00,VWS V14.01,2013-05-25 13:44:00,
2013-05-25 09:45:00,79.0,68.6,30.21,ENE,75,0.0,0.0,70,0.00,,,0.00,VWS V14.01,2013-05-25 13:45:00,
2013-05-25 09:49:00,79.1,67.9,30.21,NE,45,0.0,2.1,69,0.00,,,0.00,VWS V14.01,2013-05-25 13:49:00,
2013-05-25 09:50:00,79.3,68.0,30.21,ENE,70,0.0,1.7,68,0.00,,,0.00,VWS V14.01,2013-05-25 13:50:00,
2013-05-25 09:54:00,79.5,68.1,30.21,NE,46,0.0,0.0,68,0.00,,,0.00,VWS V14.01,2013-05-25 13:54:00,
2013-05-25 09:55:00,79.7,68.2,30.21,NE,52,0.0,3.4,68,0.00,,,0.00,VWS V14.01,2013-05-25 13:55:00,
2013-05-25 09:59:00,79.8,68.3,30.21,NE,52,0.0,1.7,68,0.00,,,0.00,VWS V14.01,2013-05-25 13:59:00,
2013-05-25 10:00:00,79.9,67.6,30.21,NE,52,0.0,2.1,66,0.00,,,0.00,VWS V14.01,2013-05-25 14:00:00,
2013-05-25 10:04:00,80.0,67.9,30.21,ENE,63,0.0,0.0,67,0.00,,,0.00,VWS V14.01,2013-05-25 14:04:00,
2013-05-25 10:05:00,80.1,68.6,30.21,ENE,63,0.0,0.0,68,0.00,,,0.00,VWS V14.01,2013-05-25 14:05:00,
2013-05-25 10:09:00,80.2,68.1,30.21,ENE,63,0.0,0.0,67,0.00,,,0.00,VWS V14.01,2013-05-25 14:09:00,
2013-05-25 10:10:00,80.3,67.9,30.21,East,90,0.0,0.0,66,0.00,,,0.00,VWS V14.01,2013-05-25 14:10:00,
2013-05-25 10:14:00,80.4,68.2,30.21,East,90,0.0,0.0,66,0.00,,,0.00,VWS V14.01,2013-05-25 14:14:00,
2013-05-25 10:15:00,80.5,68.4,30.21,East,90,0.0,0.0,67,0.00,,,0.00,VWS V14.01,2013-05-25 14:15:00,
2013-05-25 10:19:00,80.5,68.5,30.21,East,90,0.0,0.0,67,0.00,,,0.00,VWS V14.01,2013-05-25 14:19:00,
2013-05-25 10:20:00,80.7,68.5,30.21,NE,41,0.0,2.9,66,0.00,,,0.00,VWS V14.01,2013-05-25 14:20:00,
2013-05-25 10:24:00,81.0,68.7,30.21,NE,41,0.0,0.0,66,0.00,,,0.00,VWS V14.01,2013-05-25 14:24:00,
2013-05-25 10:25:00,81.2,68.2,30.21,NE,41,0.0,0.0,65,0.00,,,0.00,VWS V14.01,2013-05-25 14:25:00,
2013-05-25 10:29:00,81.3,68.2,30.21,ENE,69,0.0,3.1,64,0.00,,,0.00,VWS V14.01,2013-05-25 14:29:00,
2013-05-25 10:30:00,81.5,68.5,30.21,ENE,69,0.0,0.0,65,0.00,,,0.00,VWS V14.01,2013-05-25 14:30:00,
2013-05-25 10:34:00,81.5,68.6,30.21,ENE,69,0.0,0.0,65,0.00,,,0.00,VWS V14.01,2013-05-25 14:34:00,
2013-05-25 10:35:00,81.7,68.3,30.21,East,94,0.0,4.6,64,0.00,,,0.00,VWS V14.01,2013-05-25 14:35:00,
2013-05-25 10:39:00,81.6,68.0,30.21,East,94,0.0,0.0,63,0.00,,,0.00,VWS V14.01,2013-05-25 14:39:00,
2013-05-25 10:40:00,81.6,68.8,30.21,SSW,194,0.0,3.4,65,0.00,,,0.00,VWS V14.01,2013-05-25 14:40:00,
2013-05-25 10:44:00,81.6,67.7,30.21,SSW,194,0.0,0.0,63,0.00,,,0.00,VWS V14.01,2013-05-25 14:44:00,
2013-05-25 10:45:00,81.8,67.7,30.21,SSW,194,0.0,0.0,62,0.00,,,0.00,VWS V14.01,2013-05-25 14:45:00,
2013-05-25 10:49:00,81.8,68.2,30.21,SSW,194,0.0,0.0,63,0.00,,,0.00,VWS V14.01,2013-05-25 14:49:00,
2013-05-25 10:50:00,81.7,67.8,30.21,SSW,194,0.0,0.0,63,0.00,,,0.00,VWS V14.01,2013-05-25 14:50:00,
2013-05-25 10:54:00,81.7,67.7,30.22,SSW,194,0.0,0.0,63,0.00,,,0.00,VWS V14.01,2013-05-25 14:54:00,
2013-05-25 10:55:00,81.9,68.0,30.21,SSW,194,0.0,0.0,63,0.00,,,0.00,VWS V14.01,2013-05-25 14:55:00,
2013-05-25 10:59:00,82.0,68.7,30.22,ENE,69,0.0,3.5,64,0.00,,,0.00,VWS V14.01,2013-05-25 14:59:00,
2013-05-25 11:00:00,82.1,67.9,30.22,ENE,69,0.0,0.0,62,0.00,,,0.00,VWS V14.01,2013-05-25 15:00:00,
2013-05-25 11:04:00,82.2,67.9,30.22,ENE,69,0.0,0.0,62,0.00,,,0.00,VWS V14.01,2013-05-25 15:04:00,
2013-05-25 11:05:00,82.1,67.7,30.22,ENE,60,0.0,4.7,62,0.00,,,0.00,VWS V14.01,2013-05-25 15:05:00,
2013-05-25 11:09:00,81.9,68.1,30.22,ENE,60,0.0,0.0,63,0.00,,,0.00,VWS V14.01,2013-05-25 15:09:00,
2013-05-25 11:10:00,82.1,68.7,30.22,ENE,60,0.0,0.0,64,0.00,,,0.00,VWS V14.01,2013-05-25 15:10:00,
2013-05-25 11:14:00,82.2,67.8,30.22,ENE,60,0.0,0.0,62,0.00,,,0.00,VWS V14.01,2013-05-25 15:14:00,
2013-05-25 11:15:00,82.4,69.0,30.22,NE,38,0.0,3.3,64,0.00,,,0.00,VWS V14.01,2013-05-25 15:15:00,
2013-05-25 11:19:00,82.7,68.8,30.22,ENE,77,5.0,6.0,63,0.00,,,0.00,VWS V14.01,2013-05-25 15:19:00,
2013-05-25 11:20:00,82.7,68.3,30.22,NE,37,2.2,2.2,62,0.00,,,0.00,VWS V14.01,2013-05-25 15:20:00,
2013-05-25 11:24:00,82.9,68.8,30.22,NE,56,0.0,0.0,63,0.00,,,0.00,VWS V14.01,2013-05-25 15:24:00,
2013-05-25 11:25:00,83.0,67.6,30.22,ENE,69,0.0,4.2,60,0.00,,,0.00,VWS V14.01,2013-05-25 15:25:00,
2013-05-25 11:29:00,82.9,68.8,30.22,ENE,69,0.0,0.0,62,0.00,,,0.00,VWS V14.01,2013-05-25 15:29:00,
2013-05-25 11:30:00,82.7,67.8,30.22,East,90,0.0,3.2,61,0.00,,,0.00,VWS V14.01,2013-05-25 15:30:00,
2013-05-25 11:34:00,82.6,68.3,30.22,ENE,76,0.0,2.1,62,0.00,,,0.00,VWS V14.01,2013-05-25 15:34:00,
2013-05-25 11:35:00,82.5,68.3,30.22,East,97,0.0,2.9,62,0.00,,,0.00,VWS V14.01,2013-05-25 15:35:00,
2013-05-25 11:38:00,82.4,68.0,30.22,East,97,0.0,1.9,62,0.00,,,0.00,VWS V14.01,2013-05-25 15:38:00,
2013-05-25 11:40:00,82.5,68.5,30.22,East,97,0.0,0.0,63,0.00,,,0.00,VWS V14.01,2013-05-25 15:40:00,
2013-05-25 11:43:00,82.4,68.0,30.22,East,97,0.0,0.0,62,0.00,,,0.00,VWS V14.01,2013-05-25 15:43:00,
2013-05-25 11:45:00,82.5,68.0,30.23,East,97,0.0,0.0,62,0.00,,,0.00,VWS V14.01,2013-05-25 15:45:00,
2013-05-25 11:48:00,82.5,67.7,30.23,East,97,0.0,0.0,61,0.00,,,0.00,VWS V14.01,2013-05-25 15:48:00,
2013-05-25 11:50:00,82.5,68.2,30.23,NE,51,0.0,3.4,62,0.00,,,0.00,VWS V14.01,2013-05-25 15:50:00,
2013-05-25 11:53:00,82.8,67.9,30.23,NNE,25,0.0,4.3,61,0.00,,,0.00,VWS V14.01,2013-05-25 15:53:00,
2013-05-25 11:55:00,83.0,68.5,30.23,NNE,25,0.0,1.2,62,0.00,,,0.00,VWS V14.01,2013-05-25 15:55:00,
2013-05-25 11:58:00,83.3,68.8,30.23,NNE,25,0.0,0.0,62,0.00,,,0.00,VWS V14.01,2013-05-25 15:58:00,
2013-05-25 12:00:00,83.4,68.1,30.22,SE,135,5.2,6.3,60,0.00,,,0.00,VWS V14.01,2013-05-25 16:00:00,
2013-05-25 12:03:00,83.2,68.0,30.23,East,79,1.8,1.9,60,0.00,,,0.00,VWS V14.01,2013-05-25 16:03:00,
2013-05-25 12:05:00,82.9,67.6,30.22,East,79,0.0,0.0,60,0.00,,,0.00,VWS V14.01,2013-05-25 16:05:00,
2013-05-25 12:08:00,82.7,67.7,30.23,East,79,0.0,0.0,61,0.00,,,0.00,VWS V14.01,2013-05-25 16:08:00,
2013-05-25 12:10:00,82.8,67.6,30.23,East,79,0.0,0.0,60,0.00,,,0.00,VWS V14.01,2013-05-25 16:10:00,
2013-05-25 12:13:00,83.0,68.3,30.22,East,79,0.0,0.0,61,0.00,,,0.00,VWS V14.01,2013-05-25 16:13:00,
2013-05-25 12:15:00,83.1,68.3,30.22,East,79,0.0,0.0,61,0.00,,,0.00,VWS V14.01,2013-05-25 16:15:00,
2013-05-25 12:18:00,83.3,68.3,30.22,East,79,0.0,0.0,61,0.00,,,0.00,VWS V14.01,2013-05-25 16:18:00,
2013-05-25 12:20:00,83.4,68.1,30.22,East,79,0.0,0.0,60,0.00,,,0.00,VWS V14.01,2013-05-25 16:20:00,
2013-05-25 12:23:00,83.4,67.7,30.23,East,79,0.0,0.0,59,0.00,,,0.00,VWS V14.01,2013-05-25 16:23:00,
2013-05-25 12:25:00,83.2,67.5,30.23,East,86,0.0,3.0,59,0.00,,,0.00,VWS V14.01,2013-05-25 16:25:00,
2013-05-25 12:28:00,83.0,67.7,30.23,ENE,69,0.0,0.0,60,0.00,,,0.00,VWS V14.01,2013-05-25 16:28:00,
2013-05-25 12:30:00,82.9,67.9,30.23,ENE,69,0.0,0.0,61,0.00,,,0.00,VWS V14.01,2013-05-25 16:30:00,
2013-05-25 12:33:00,82.9,67.4,30.23,ESE,112,0.0,4.5,60,0.00,,,0.00,VWS V14.01,2013-05-25 16:33:00,
2013-05-25 12:35:00,83.2,67.8,30.22,ESE,112,0.0,0.0,60,0.00,,,0.00,VWS V14.01,2013-05-25 16:35:00,
2013-05-25 12:38:00,83.4,67.7,30.22,ESE,112,0.0,0.0,59,0.00,,,0.00,VWS V14.01,2013-05-25 16:38:00,
2013-05-25 12:40:00,83.9,67.4,30.22,East,86,1.7,3.4,58,0.00,,,0.00,VWS V14.01,2013-05-25 16:40:00,
2013-05-25 12:43:00,84.2,67.5,30.22,East,86,0.0,0.0,57,0.00,,,0.00,VWS V14.01,2013-05-25 16:43:00,
2013-05-25 12:45:00,84.5,67.8,30.22,East,93,0.0,3.5,57,0.00,,,0.00,VWS V14.01,2013-05-25 16:45:00,
2013-05-25 12:48:00,84.7,68.2,30.22,East,93,0.0,0.0,58,0.00,,,0.00,VWS V14.01,2013-05-25 16:48:00,
2013-05-25 12:50:00,84.6,67.7,30.22,East,93,0.0,0.0,57,0.00,,,0.00,VWS V14.01,2013-05-25 16:50:00,
2013-05-25 12:53:00,84.4,67.9,30.22,East,93,0.0,0.0,58,0.00,,,0.00,VWS V14.01,2013-05-25 16:53:00,
2013-05-25 12:55:00,84.1,67.2,30.22,NE,39,0.0,0.0,57,0.00,,,0.00,VWS V14.01,2013-05-25 16:55:00,
2013-05-25 12:58:00,84.0,67.6,30.22,NE,39,0.0,0.0,58,0.00,,,0.00,VWS V14.01,2013-05-25 16:58:00,
2013-05-25 13:00:00,84.0,67.7,30.22,NE,39,0.0,0.0,58,0.00,,,0.00,VWS V14.01,2013-05-25 17:00:00,
2013-05-25 13:03:00,84.0,66.9,30.22,ESE,122,0.0,2.9,56,0.00,,,0.00,VWS V14.01,2013-05-25 17:03:00,
2013-05-25 13:05:00,83.9,67.8,30.22,ESE,122,0.0,0.0,58,0.00,,,0.00,VWS V14.01,2013-05-25 17:05:00,
2013-05-25 13:08:00,84.0,66.8,30.22,ESE,122,0.0,0.0,56,0.00,,,0.00,VWS V14.01,2013-05-25 17:08:00,
2013-05-25 13:10:00,84.0,66.8,30.22,ESE,122,0.0,0.0,56,0.00,,,0.00,VWS V14.01,2013-05-25 17:10:00,
2013-05-25 13:13:00,84.0,67.0,30.22,ESE,122,2.0,3.2,57,0.00,,,0.00,VWS V14.01,2013-05-25 17:13:00,
2013-05-25 13:15:00,84.1,68.0,30.22,ESE,122,0.0,0.0,59,0.00,,,0.00,VWS V14.01,2013-05-25 17:15:00,
2013-05-25 13:18:00,84.3,67.8,30.22,ESE,122,0.0,0.0,58,0.00,,,0.00,VWS V14.01,2013-05-25 17:18:00,
2013-05-25 13:20:00,84.4,67.4,30.22,ESE,122,0.0,0.0,57,0.00,,,0.00,VWS V14.01,2013-05-25 17:20:00,
2013-05-25 13:23:00,84.6,67.2,30.22,ESE,122,0.0,0.0,56,0.00,,,0.00,VWS V14.01,2013-05-25 17:23:00,
2013-05-25 13:25:00,84.9,67.3,30.21,ESE,122,0.0,0.0,56,0.00,,,0.00,VWS V14.01,2013-05-25 17:25:00,
2013-05-25 13:28:00,85.2,67.4,30.21,ESE,122,0.0,0.0,55,0.00,,,0.00,VWS V14.01,2013-05-25 17:28:00,
2013-05-25 13:30:00,85.2,67.1,30.21,NNE,25,0.0,0.0,55,0.00,,,0.00,VWS V14.01,2013-05-25 17:30:00,
2013-05-25 13:33:00,85.1,67.4,30.21,NNE,25,0.0,0.0,56,0.00,,,0.00,VWS V14.01,2013-05-25 17:33:00,
2013-05-25 13:35:00,85.0,67.5,30.21,ENE,65,0.0,0.0,56,0.00,,,0.00,VWS V14.01,2013-05-25 17:35:00,
2013-05-25 13:38:00,85.1,67.9,30.21,ENE,65,0.0,0.0,56,0.00,,,0.00,VWS V14.01,2013-05-25 17:38:00,
2013-05-25 13:40:00,85.6,67.9,30.20,South,180,0.0,0.0,56,0.00,,,0.00,VWS V14.01,2013-05-25 17:40:00,
2013-05-25 13:43:00,86.0,67.5,30.21,South,180,0.0,0.0,54,0.00,,,0.00,VWS V14.01,2013-05-25 17:43:00,
2013-05-25 13:45:00,86.2,67.2,30.21,NE,51,0.0,3.4,53,0.00,,,0.00,VWS V14.01,2013-05-25 17:45:00,
2013-05-25 13:48:00,86.3,67.7,30.21,NE,51,0.0,0.0,54,0.00,,,0.00,VWS V14.01,2013-05-25 17:48:00,
2013-05-25 13:50:00,86.0,66.7,30.21,NE,51,0.0,0.0,53,0.00,,,0.00,VWS V14.01,2013-05-25 17:50:00,
2013-05-25 13:53:00,85.8,66.6,30.20,NE,51,0.0,0.0,53,0.00,,,0.00,VWS V14.01,2013-05-25 17:53:00,
2013-05-25 13:55:00,85.7,67.3,30.20,NE,51,0.0,0.0,54,0.00,,,0.00,VWS V14.01,2013-05-25 17:55:00,
2013-05-25 13:58:00,85.9,68.0,30.20,NE,51,0.0,0.0,55,0.00,,,0.00,VWS V14.01,2013-05-25 17:58:00,
2013-05-25 14:00:00,86.2,67.3,30.20,NE,38,0.0,4.5,53,0.00,,,0.00,VWS V14.01,2013-05-25 18:00:00,
2013-05-25 14:03:00,86.5,67.1,30.20,NE,38,0.0,0.0,52,0.00,,,0.00,VWS V14.01,2013-05-25 18:03:00,
2013-05-25 14:05:00,86.6,67.7,30.20,NE,38,0.0,3.0,53,0.00,,,0.00,VWS V14.01,2013-05-25 18:05:00,
2013-05-25 14:08:00,86.3,67.5,30.20,NE,38,0.0,0.0,54,0.00,,,0.00,VWS V14.01,2013-05-25 18:08:00,
2013-05-25 14:10:00,86.1,68.2,30.20,NE,38,0.0,0.0,55,0.00,,,0.00,VWS V14.01,2013-05-25 18:10:00,
2013-05-25 14:13:00,86.4,67.9,30.20,NE,38,0.0,0.0,54,0.00,,,0.00,VWS V14.01,2013-05-25 18:13:00,
2013-05-25 14:15:00,86.6,67.1,30.20,NE,38,0.0,0.0,52,0.00,,,0.00,VWS V14.01,2013-05-25 18:15:00,
2013-05-25 14:18:00,86.8,68.2,30.20,NE,38,0.0,0.0,54,0.00,,,0.00,VWS V14.01,2013-05-25 18:18:00,
2013-05-25 14:20:00,87.3,68.1,30.20,NE,38,0.0,0.0,53,0.00,,,0.00,VWS V14.01,2013-05-25 18:20:00,
2013-05-25 14:23:00,87.5,67.2,30.20,NE,38,0.0,0.0,51,0.00,,,0.00,VWS V14.01,2013-05-25 18:23:00,
2013-05-25 14:25:00,87.5,66.8,30.20,NE,38,0.0,0.0,50,0.00,,,0.00,VWS V14.01,2013-05-25 18:25:00,
2013-05-25 14:28:00,87.1,66.7,30.20,NE,55,0.0,2.5,51,0.00,,,0.00,VWS V14.01,2013-05-25 18:28:00,
2013-05-25 14:30:00,86.6,66.2,30.20,NE,55,0.0,0.0,51,0.00,,,0.00,VWS V14.01,2013-05-25 18:30:00,
2013-05-25 14:33:00,86.4,66.9,30.19,NE,55,0.0,0.0,52,0.00,,,0.00,VWS V14.01,2013-05-25 18:33:00,
2013-05-25 14:35:00,86.1,65.8,30.19,SE,142,0.0,3.0,51,0.00,,,0.00,VWS V14.01,2013-05-25 18:35:00,
2013-05-25 14:38:00,86.0,66.1,30.19,SE,142,0.0,0.0,52,0.00,,,0.00,VWS V14.01,2013-05-25 18:38:00,
2013-05-25 14:40:00,86.0,67.4,30.19,SE,142,0.0,0.0,54,0.00,,,0.00,VWS V14.01,2013-05-25 18:40:00,
2013-05-25 14:43:00,86.2,68.3,30.19,SE,142,0.0,0.0,55,0.00,,,0.00,VWS V14.01,2013-05-25 18:43:00,
2013-05-25 14:45:00,86.6,67.7,30.19,SE,142,0.0,0.0,53,0.00,,,0.00,VWS V14.01,2013-05-25 18:45:00,
2013-05-25 14:48:00,86.7,66.3,30.19,SE,142,0.0,0.0,51,0.00,,,0.00,VWS V14.01,2013-05-25 18:48:00,
2013-05-25 14:50:00,86.5,66.6,30.19,SE,142,0.0,0.0,52,0.00,,,0.00,VWS V14.01,2013-05-25 18:50:00,
2013-05-25 14:53:00,86.2,66.5,30.19,East,82,3.0,3.4,52,0.00,,,0.00,VWS V14.01,2013-05-25 18:53:00,
2013-05-25 14:55:00,86.0,65.6,30.19,NNE,32,0.0,0.0,51,0.00,,,0.00,VWS V14.01,2013-05-25 18:55:00,
2013-05-25 14:58:00,85.9,65.8,30.19,NNE,32,0.0,0.0,51,0.00,,,0.00,VWS V14.01,2013-05-25 18:58:00,
2013-05-25 15:00:00,86.1,66.2,30.19,NNE,32,0.0,0.0,52,0.00,,,0.00,VWS V14.01,2013-05-25 19:00:00,
2013-05-25 15:03:00,86.3,66.1,30.19,East,82,0.0,3.3,51,0.00,,,0.00,VWS V14.01,2013-05-25 19:03:00,
2013-05-25 15:05:00,86.7,66.1,30.19,ENE,65,0.0,0.0,50,0.00,,,0.00,VWS V14.01,2013-05-25 19:05:00,
2013-05-25 15:08:00,86.9,65.8,30.19,ENE,65,0.0,0.0,50,0.00,,,0.00,VWS V14.01,2013-05-25 19:08:00,
2013-05-25 15:10:00,86.9,65.8,30.19,ENE,65,0.0,0.0,50,0.00,,,0.00,VWS V14.01,2013-05-25 19:10:00,
2013-05-25 15:13:00,86.9,66.1,30.18,ENE,65,0.0,0.0,50,0.00,,,0.00,VWS V14.01,2013-05-25 19:13:00,
2013-05-25 15:15:00,87.3,65.9,30.18,SSE,160,0.0,5.2,49,0.00,,,0.00,VWS V14.01,2013-05-25 19:15:00,
2013-05-25 15:18:00,87.5,65.5,30.18,SSE,160,0.0,3.3,48,0.00,,,0.00,VWS V14.01,2013-05-25 19:18:00,
2013-05-25 15:20:00,87.9,65.2,30.18,SSE,160,0.0,0.0,47,0.00,,,0.00,VWS V14.01,2013-05-25 19:20:00,
2013-05-25 15:23:00,88.0,65.5,30.18,SSE,160,0.0,0.0,47,0.00,,,0.00,VWS V14.01,2013-05-25 19:23:00,
2013-05-25 15:25:00,87.7,64.8,30.18,SSE,160,0.0,0.0,47,0.00,,,0.00,VWS V14.01,2013-05-25 19:25:00,
2013-05-25 15:28:00,87.5,63.8,30.18,SSE,160,0.0,0.0,45,0.00,,,0.00,VWS V14.01,2013-05-25 19:28:00,
2013-05-25 15:30:00,87.2,65.0,30.18,SSE,160,0.0,0.0,48,0.00,,,0.00,VWS V14.01,2013-05-25 19:30:00,
2013-05-25 15:33:00,87.3,64.4,30.18,SSE,160,0.0,0.0,47,0.00,,,0.00,VWS V14.01,2013-05-25 19:33:00,
2013-05-25 15:35:00,87.7,66.1,30.18,SSE,160,0.0,0.0,49,0.00,,,0.00,VWS V14.01,2013-05-25 19:35:00,
2013-05-25 15:38:00,88.1,65.5,30.18,SSE,160,0.0,0.0,47,0.00,,,0.00,VWS V14.01,2013-05-25 19:38:00,
2013-05-25 15:40:00,88.6,66.2,30.17,SSE,160,0.0,0.0,48,0.00,,,0.00,VWS V14.01,2013-05-25 19:40:00,
2013-05-25 15:43:00,88.6,64.9,30.18,ESE,115,3.5,4.8,46,0.00,,,0.00,VWS V14.01,2013-05-25 19:43:00,
2013-05-25 15:45:00,88.6,64.2,30.17,SE,125,0.0,0.0,44,0.00,,,0.00,VWS V14.01,2013-05-25 19:45:00,
2013-05-25 15:48:00,88.6,63.8,30.17,SE,125,0.0,0.0,44,0.00,,,0.00,VWS V14.01,2013-05-25 19:48:00,
2013-05-25 15:50:00,88.6,64.0,30.17,SE,125,0.0,0.0,44,0.00,,,0.00,VWS V14.01,2013-05-25 19:50:00,
2013-05-25 15:53:00,88.5,63.4,30.17,SE,125,0.0,0.0,43,0.00,,,0.00,VWS V14.01,2013-05-25 19:53:00,
2013-05-25 15:55:00,88.2,64.0,30.17,SE,125,0.0,0.0,45,0.00,,,0.00,VWS V14.01,2013-05-25 19:55:00,
2013-05-25 15:58:00,88.2,64.6,30.17,SE,125,0.0,0.0,46,0.00,,,0.00,VWS V14.01,2013-05-25 19:58:00,
2013-05-25 16:00:00,88.2,64.3,30.17,SW,235,0.0,3.2,45,0.00,,,0.00,VWS V14.01,2013-05-25 20:00:00,
2013-05-25 16:03:00,88.2,63.0,30.17,SW,235,0.0,2.9,43,0.00,,,0.00,VWS V14.01,2013-05-25 20:03:00,
2013-05-25 16:05:00,88.3,64.6,30.17,SW,235,0.0,0.0,46,0.00,,,0.00,VWS V14.01,2013-05-25 20:05:00,
2013-05-25 16:08:00,88.5,64.4,30.17,SW,235,0.0,0.0,45,0.00,,,0.00,VWS V14.01,2013-05-25 20:08:00,
2013-05-25 16:10:00,88.7,64.5,30.17,SW,235,0.0,0.0,45,0.00,,,0.00,VWS V14.01,2013-05-25 20:10:00,
2013-05-25 16:13:00,88.5,62.6,30.17,SW,235,0.0,0.0,42,0.00,,,0.00,VWS V14.01,2013-05-25 20:13:00,
2013-05-25 16:15:00,87.8,62.9,30.17,East,93,0.0,0.0,44,0.00,,,0.00,VWS V14.01,2013-05-25 20:15:00,
2013-05-25 16:18:00,87.7,64.6,30.17,East,93,0.0,0.0,46,0.00,,,0.00,VWS V14.01,2013-05-25 20:18:00,
2013-05-25 16:20:00,87.9,64.2,30.17,East,93,0.0,0.0,46,0.00,,,0.00,VWS V14.01,2013-05-25 20:20:00,
2013-05-25 16:23:00,87.8,63.1,30.17,East,93,0.0,0.0,44,0.00,,,0.00,VWS V14.01,2013-05-25 20:23:00,
2013-05-25 16:25:00,87.9,65.1,30.17,East,93,0.0,2.5,47,0.00,,,0.00,VWS V14.01,2013-05-25 20:25:00,
2013-05-25 16:28:00,88.0,65.5,30.17,East,93,0.0,0.0,47,0.00,,,0.00,VWS V14.01,2013-05-25 20:28:00,
2013-05-25 16:30:00,88.0,64.5,30.17,East,93,0.0,0.0,46,0.00,,,0.00,VWS V14.01,2013-05-25 20:30:00,
2013-05-25 16:33:00,88.1,65.2,30.17,ESE,115,0.0,4.9,47,0.00,,,0.00,VWS V14.01,2013-05-25 20:33:00,
2013-05-25 16:35:00,88.2,64.9,30.17,ESE,115,0.0,0.0,46,0.00,,,0.00,VWS V14.01,2013-05-25 20:35:00,
2013-05-25 16:38:00,88.2,64.9,30.17,ESE,115,0.0,0.0,46,0.00,,,0.00,VWS V14.01,2013-05-25 20:38:00,
2013-05-25 16:40:00,87.7,64.2,30.17,ESE,115,0.0,0.0,46,0.00,,,0.00,VWS V14.01,2013-05-25 20:40:00,
2013-05-25 16:43:00,87.5,64.5,30.17,ESE,115,0.0,0.0,46,0.00,,,0.00,VWS V14.01,2013-05-25 20:43:00,
2013-05-25 16:45:00,87.3,64.4,30.17,ESE,115,0.0,0.0,47,0.00,,,0.00,VWS V14.01,2013-05-25 20:45:00,
2013-05-25 16:48:00,87.2,65.2,30.17,ESE,115,0.0,0.0,48,0.00,,,0.00,VWS V14.01,2013-05-25 20:48:00,
2013-05-25 16:50:00,86.7,65.0,30.17,NE,45,0.0,0.0,48,0.00,,,0.00,VWS V14.01,2013-05-25 20:50:00,
2013-05-25 16:52:00,86.5,64.9,30.17,NE,45,0.0,0.0,49,0.00,,,0.00,VWS V14.01,2013-05-25 20:52:00,
2013-05-25 16:55:00,86.4,65.6,30.17,NE,45,0.0,0.0,50,0.00,,,0.00,VWS V14.01,2013-05-25 20:55:00,
2013-05-25 16:57:00,86.4,65.5,30.17,NE,45,0.0,0.0,50,0.00,,,0.00,VWS V14.01,2013-05-25 20:57:00,
2013-05-25 17:00:00,86.3,64.2,30.17,NE,45,0.0,0.0,48,0.00,,,0.00,VWS V14.01,2013-05-25 21:00:00,
2013-05-25 17:02:00,86.3,65.1,30.17,NE,45,0.0,2.5,49,0.00,,,0.00,VWS V14.01,2013-05-25 21:02:00,
2013-05-25 17:05:00,86.2,64.9,30.17,NE,45,0.0,0.0,49,0.00,,,0.00,VWS V14.01,2013-05-25 21:05:00,
2013-05-25 17:07:00,86.2,65.6,30.17,NE,45,0.0,0.0,50,0.00,,,0.00,VWS V14.01,2013-05-25 21:07:00,
2013-05-25 17:10:00,86.2,65.3,30.17,NE,45,0.0,0.0,50,0.00,,,0.00,VWS V14.01,2013-05-25 21:10:00,
2013-05-25 17:12:00,86.2,64.5,30.17,NE,45,0.0,0.0,48,0.00,,,0.00,VWS V14.01,2013-05-25 21:12:00,
2013-05-25 17:15:00,85.7,64.1,30.17,NE,45,0.0,0.0,48,0.00,,,0.00,VWS V14.01,2013-05-25 21:15:00,
2013-05-25 17:18:00,85.6,64.2,30.17,NE,45,0.0,1.4,49,0.00,,,0.00,VWS V14.01,2013-05-25 21:18:00,
2013-05-25 17:20:00,85.4,64.3,30.17,NE,45,0.0,0.0,49,0.00,,,0.00,VWS V14.01,2013-05-25 21:20:00,
2013-05-25 17:23:00,85.3,64.5,30.17,NNW,340,0.0,2.7,50,0.00,,,0.00,VWS V14.01,2013-05-25 21:23:00,
2013-05-25 17:25:00,84.9,63.5,30.17,NNW,340,0.0,0.0,49,0.00,,,0.00,VWS V14.01,2013-05-25 21:25:00,
2013-05-25 17:27:00,84.9,64.6,30.17,NNW,340,0.0,0.0,51,0.00,,,0.00,VWS V14.01,2013-05-25 21:27:00,
2013-05-25 17:30:00,84.7,64.3,30.17,NNW,340,0.0,3.2,50,0.00,,,0.00,VWS V14.01,2013-05-25 21:30:00,
2013-05-25 17:32:00,84.5,63.5,30.17,NNW,340,0.0,0.0,50,0.00,,,0.00,VWS V14.01,2013-05-25 21:32:00,
2013-05-25 17:35:00,84.4,64.4,30.17,NNW,340,0.0,0.0,51,0.00,,,0.00,VWS V14.01,2013-05-25 21:35:00,
2013-05-25 17:37:00,84.3,63.9,30.17,East,89,0.0,2.2,50,0.00,,,0.00,VWS V14.01,2013-05-25 21:37:00,
2013-05-25 17:40:00,84.2,64.2,30.17,East,89,0.0,0.0,51,0.00,,,0.00,VWS V14.01,2013-05-25 21:40:00,
2013-05-25 17:42:00,84.2,64.1,30.17,East,89,0.0,0.0,51,0.00,,,0.00,VWS V14.01,2013-05-25 21:42:00,
2013-05-25 17:45:00,84.2,64.3,30.17,East,89,0.0,0.0,51,0.00,,,0.00,VWS V14.01,2013-05-25 21:45:00,
2013-05-25 17:47:00,84.2,64.2,30.17,East,89,0.0,0.0,51,0.00,,,0.00,VWS V14.01,2013-05-25 21:47:00,
2013-05-25 17:50:00,84.2,64.3,30.17,East,89,0.0,0.0,51,0.00,,,0.00,VWS V14.01,2013-05-25 21:50:00,
2013-05-25 17:52:00,84.3,65.5,30.17,East,89,0.0,0.0,53,0.00,,,0.00,VWS V14.01,2013-05-25 21:52:00,
2013-05-25 17:55:00,84.4,63.8,30.17,East,89,0.0,1.8,50,0.00,,,0.00,VWS V14.01,2013-05-25 21:55:00,
2013-05-25 18:03:00,83.8,63.5,30.17,East,89,0.0,0.0,51,0.00,,,0.00,VWS V14.01,2013-05-25 22:03:00,
2013-05-25 18:05:00,83.6,64.0,30.17,East,89,0.0,0.0,52,0.00,,,0.00,VWS V14.01,2013-05-25 22:05:00,
2013-05-25 18:08:00,83.6,64.0,30.17,East,89,0.0,0.0,52,0.00,,,0.00,VWS V14.01,2013-05-25 22:08:00,
2013-05-25 18:10:00,83.5,63.9,30.17,East,89,0.0,0.0,52,0.00,,,0.00,VWS V14.01,2013-05-25 22:10:00,
2013-05-25 18:13:00,83.3,63.5,30.17,East,89,0.0,0.0,51,0.00,,,0.00,VWS V14.01,2013-05-25 22:13:00,
2013-05-25 18:15:00,82.9,63.9,30.17,East,89,2.2,2.7,53,0.00,,,0.00,VWS V14.01,2013-05-25 22:15:00,
2013-05-25 18:18:00,82.6,63.7,30.17,NE,39,0.0,2.7,53,0.00,,,0.00,VWS V14.01,2013-05-25 22:18:00,
2013-05-25 18:20:00,82.4,63.6,30.17,NE,39,0.0,0.0,53,0.00,,,0.00,VWS V14.01,2013-05-25 22:20:00,
2013-05-25 18:23:00,82.4,63.8,30.17,NE,39,0.0,0.0,54,0.00,,,0.00,VWS V14.01,2013-05-25 22:23:00,
2013-05-25 18:25:00,82.3,63.4,30.17,NE,39,0.0,0.0,53,0.00,,,0.00,VWS V14.01,2013-05-25 22:25:00,
2013-05-25 18:28:00,82.2,64.0,30.17,NE,39,0.0,0.0,54,0.00,,,0.00,VWS V14.01,2013-05-25 22:28:00,
2013-05-25 18:30:00,82.0,63.8,30.17,NE,55,0.0,2.3,54,0.00,,,0.00,VWS V14.01,2013-05-25 22:30:00,
2013-05-25 18:33:00,81.8,63.8,30.18,NE,55,0.0,0.0,54,0.00,,,0.00,VWS V14.01,2013-05-25 22:33:00,
2013-05-25 18:35:00,81.8,64.0,30.17,NE,55,0.0,0.0,55,0.00,,,0.00,VWS V14.01,2013-05-25 22:35:00,
2013-05-25 18:38:00,81.8,64.0,30.18,NE,55,0.0,0.0,55,0.00,,,0.00,VWS V14.01,2013-05-25 22:38:00,
2013-05-25 18:40:00,81.8,64.1,30.17,NE,55,0.0,0.0,55,0.00,,,0.00,VWS V14.01,2013-05-25 22:40:00,
2013-05-25 18:43:00,81.8,64.3,30.17,NE,55,0.0,0.0,56,0.00,,,0.00,VWS V14.01,2013-05-25 22:43:00,
2013-05-25 18:45:00,81.9,64.2,30.17,NE,55,0.0,0.0,55,0.00,,,0.00,VWS V14.01,2013-05-25 22:45:00,
2013-05-25 18:48:00,81.8,64.3,30.18,NE,55,0.0,0.0,56,0.00,,,0.00,VWS V14.01,2013-05-25 22:48:00,
2013-05-25 18:50:00,81.8,64.3,30.17,ENE,58,3.3,4.1,56,0.00,,,0.00,VWS V14.01,2013-05-25 22:50:00,
2013-05-25 18:53:00,81.7,64.4,30.18,ENE,59,0.0,0.0,56,0.00,,,0.00,VWS V14.01,2013-05-25 22:53:00,
2013-05-25 18:55:00,81.5,64.4,30.18,ENE,59,0.0,0.0,56,0.00,,,0.00,VWS V14.01,2013-05-25 22:55:00,
2013-05-25 18:58:00,81.4,64.3,30.18,ENE,59,0.0,0.0,56,0.00,,,0.00,VWS V14.01,2013-05-25 22:58:00,
2013-05-25 19:00:00,81.2,63.7,30.18,NNE,15,0.0,3.4,55,0.00,,,0.00,VWS V14.01,2013-05-25 23:00:00,
2013-05-25 19:03:00,80.9,63.4,30.18,NNE,15,0.0,0.0,55,0.00,,,0.00,VWS V14.01,2013-05-25 23:03:00,
2013-05-25 19:05:00,80.6,63.3,30.18,NNE,15,0.0,0.0,56,0.00,,,0.00,VWS V14.01,2013-05-25 23:05:00,
2013-05-25 19:08:00,80.5,63.3,30.18,NNE,22,0.0,2.5,56,0.00,,,0.00,VWS V14.01,2013-05-25 23:08:00,
2013-05-25 19:10:00,80.5,64.0,30.18,NNE,22,0.0,0.0,57,0.00,,,0.00,VWS V14.01,2013-05-25 23:10:00,
2013-05-25 19:13:00,80.5,63.8,30.18,NNE,22,0.0,0.0,57,0.00,,,0.00,VWS V14.01,2013-05-25 23:13:00,
2013-05-25 19:15:00,80.4,63.9,30.18,NNE,22,0.0,0.0,57,0.00,,,0.00,VWS V14.01,2013-05-25 23:15:00,
2013-05-25 19:18:00,80.3,63.5,30.18,NNE,22,0.0,0.0,57,0.00,,,0.00,VWS V14.01,2013-05-25 23:18:00,
2013-05-25 19:20:00,80.1,63.2,30.18,NNE,22,0.0,0.0,56,0.00,,,0.00,VWS V14.01,2013-05-25 23:20:00,
2013-05-25 19:23:00,80.2,63.4,30.18,NNE,22,0.0,0.0,57,0.00,,,0.00,VWS V14.01,2013-05-25 23:23:00,
2013-05-25 19:25:00,80.0,63.6,30.18,NNE,22,0.0,0.0,57,0.00,,,0.00,VWS V14.01,2013-05-25 23:25:00,
2013-05-25 19:28:00,80.0,63.6,30.18,NNE,22,0.0,0.0,57,0.00,,,0.00,VWS V14.01,2013-05-25 23:28:00,
2013-05-25 19:30:00,79.8,63.3,30.18,NNE,22,0.0,0.0,57,0.00,,,0.00,VWS V14.01,2013-05-25 23:30:00,
2013-05-25 19:33:00,79.7,63.3,30.18,NNE,22,0.0,0.0,57,0.00,,,0.00,VWS V14.01,2013-05-25 23:33:00,
2013-05-25 19:43:00,79.1,63.0,30.18,NNE,22,0.0,0.0,58,0.00,,,0.00,VWS V14.01,2013-05-25 23:43:00,
2013-05-25 19:48:00,78.9,63.1,30.18,NNE,22,0.0,0.0,58,0.00,,,0.00,VWS V14.01,2013-05-25 23:48:00,
2013-05-25 19:52:00,78.8,62.9,30.18,NNE,22,0.0,0.0,58,0.00,,,0.00,VWS V14.01,2013-05-25 23:52:00,
2013-05-25 19:57:00,78.5,62.8,30.18,NNE,22,0.0,0.0,59,0.00,,,0.00,VWS V14.01,2013-05-25 23:57:00,
2013-05-25 20:02:00,78.2,62.6,30.18,ENE,59,0.0,0.0,59,0.00,,,0.00,VWS V14.01,2013-05-26 00:02:00,
2013-05-25 20:07:00,78.0,62.6,30.18,ENE,59,0.0,0.0,59,0.00,,,0.00,VWS V14.01,2013-05-26 00:07:00,
2013-05-25 20:12:00,77.9,62.7,30.18,ENE,59,0.0,0.0,60,0.00,,,0.00,VWS V14.01,2013-05-26 00:12:00,
2013-05-25 20:17:00,77.8,62.5,30.18,ENE,59,0.0,0.0,59,0.00,,,0.00,VWS V14.01,2013-05-26 00:17:00,
2013-05-25 20:22:00,77.3,62.2,30.18,East,89,0.0,0.0,60,0.00,,,0.00,VWS V14.01,2013-05-26 00:22:00,
2013-05-25 20:27:00,77.1,62.5,30.18,East,89,0.0,0.0,61,0.00,,,0.00,VWS V14.01,2013-05-26 00:27:00,
2013-05-25 20:32:00,77.0,62.5,30.19,East,89,0.0,0.0,61,0.00,,,0.00,VWS V14.01,2013-05-26 00:32:00,
2013-05-25 20:37:00,76.8,62.4,30.18,East,89,0.0,0.0,61,0.00,,,0.00,VWS V14.01,2013-05-26 00:37:00,
2013-05-25 20:42:00,76.5,62.3,30.18,East,89,0.0,0.0,62,0.00,,,0.00,VWS V14.01,2013-05-26 00:42:00,
2013-05-25 20:47:00,76.3,62.4,30.19,East,89,0.0,0.0,62,0.00,,,0.00,VWS V14.01,2013-05-26 00:47:00,
2013-05-25 20:52:00,76.1,62.5,30.19,East,89,0.0,0.0,63,0.00,,,0.00,VWS V14.01,2013-05-26 00:52:00,
2013-05-25 20:57:00,75.9,62.6,30.19,East,89,0.0,0.0,63,0.00,,,0.00,VWS V14.01,2013-05-26 00:57:00,
2013-05-25 21:02:00,75.8,62.6,30.19,East,89,0.0,0.0,64,0.00,,,0.00,VWS V14.01,2013-05-26 01:02:00,
2013-05-25 21:07:00,75.7,62.7,30.19,East,89,0.0,0.0,64,0.00,,,0.00,VWS V14.01,2013-05-26 01:07:00,
2013-05-25 21:12:00,75.6,62.8,30.19,East,89,0.0,0.0,64,0.00,,,0.00,VWS V14.01,2013-05-26 01:12:00,
2013-05-25 21:17:00,75.3,62.5,30.19,East,89,0.0,0.0,64,0.00,,,0.00,VWS V14.01,2013-05-26 01:17:00,
2013-05-25 21:22:00,75.1,62.5,30.19,East,89,0.0,0.0,65,0.00,,,0.00,VWS V14.01,2013-05-26 01:22:00,
2013-05-25 21:27:00,74.8,62.4,30.19,East,89,0.0,0.0,65,0.00,,,0.00,VWS V14.01,2013-05-26 01:27:00,
2013-05-25 21:32:00,74.7,62.6,30.19,East,89,0.0,0.0,66,0.00,,,0.00,VWS V14.01,2013-05-26 01:32:00,
2013-05-25 21:37:00,74.4,62.3,30.19,East,89,0.0,0.0,66,0.00,,,0.00,VWS V14.01,2013-05-26 01:37:00,
2013-05-25 21:42:00,74.4,62.7,30.20,East,89,0.0,0.0,67,0.00,,,0.00,VWS V14.01,2013-05-26 01:42:00,
2013-05-25 21:47:00,74.3,62.7,30.20,East,89,0.0,0.0,67,0.00,,,0.00,VWS V14.01,2013-05-26 01:47:00,
2013-05-25 21:52:00,74.1,62.5,30.20,East,89,0.0,0.0,67,0.00,,,0.00,VWS V14.01,2013-05-26 01:52:00,
2013-05-25 21:57:00,74.0,62.5,30.20,East,89,0.0,0.0,67,0.00,,,0.00,VWS V14.01,2013-05-26 01:57:00,
2013-05-25 22:02:00,73.9,62.5,30.20,East,89,0.0,0.0,68,0.00,,,0.00,VWS V14.01,2013-05-26 02:02:00,
2013-05-25 22:07:00,73.7,62.4,30.20,East,89,0.0,0.0,68,0.00,,,0.00,VWS V14.01,2013-05-26 02:07:00,
2013-05-25 22:12:00,73.6,62.4,30.20,East,89,0.0,0.0,68,0.00,,,0.00,VWS V14.01,2013-05-26 02:12:00,
2013-05-25 22:17:00,73.3,62.3,30.20,East,89,0.0,0.0,68,0.00,,,0.00,VWS V14.01,2013-05-26 02:17:00,
2013-05-25 22:22:00,73.3,62.5,30.21,East,89,0.0,0.0,69,0.00,,,0.00,VWS V14.01,2013-05-26 02:22:00,
2013-05-25 22:27:00,73.2,62.5,30.21,East,89,0.0,0.0,69,0.00,,,0.00,VWS V14.01,2013-05-26 02:27:00,
2013-05-25 22:32:00,73.0,62.5,30.21,East,89,0.0,0.0,70,0.00,,,0.00,VWS V14.01,2013-05-26 02:32:00,
2013-05-25 22:37:00,72.9,62.6,30.22,East,89,0.0,0.0,70,0.00,,,0.00,VWS V14.01,2013-05-26 02:37:00,
2013-05-25 22:42:00,72.7,62.4,30.22,East,89,0.0,0.0,70,0.00,,,0.00,VWS V14.01,2013-05-26 02:42:00,
2013-05-25 22:47:00,72.6,62.4,30.22,East,89,0.0,0.0,70,0.00,,,0.00,VWS V14.01,2013-05-26 02:47:00,
2013-05-25 22:52:00,72.4,62.3,30.23,East,89,0.0,0.0,71,0.00,,,0.00,VWS V14.01,2013-05-26 02:52:00,
2013-05-25 22:57:00,72.1,62.2,30.23,East,89,0.0,0.0,71,0.00,,,0.00,VWS V14.01,2013-05-26 02:57:00,
2013-05-25 23:02:00,72.2,62.4,30.23,East,89,0.0,0.0,71,0.00,,,0.00,VWS V14.01,2013-05-26 03:02:00,
2013-05-25 23:07:00,72.0,62.4,30.23,East,89,0.0,0.0,72,0.00,,,0.00,VWS V14.01,2013-05-26 03:07:00,
2013-05-25 23:12:00,72.0,62.3,30.23,East,89,0.0,0.0,72,0.00,,,0.00,VWS V14.01,2013-05-26 03:12:00,
2013-05-25 23:17:00,71.9,62.4,30.23,East,89,0.0,0.0,72,0.00,,,0.00,VWS V14.01,2013-05-26 03:17:00,
2013-05-25 23:22:00,71.7,62.2,30.23,East,89,0.0,0.0,72,0.00,,,0.00,VWS V14.01,2013-05-26 03:22:00,
2013-05-25 23:27:00,71.6,62.3,30.23,East,89,0.0,0.0,72,0.00,,,0.00,VWS V14.01,2013-05-26 03:27:00,
2013-05-25 23:32:00,71.5,62.1,30.23,East,89,0.0,0.0,72,0.00,,,0.00,VWS V14.01,2013-05-26 03:32:00,
2013-05-25 23:37:00,71.3,62.2,30.22,East,89,0.0,0.0,73,0.00,,,0.00,VWS V14.01,2013-05-26 03:37:00,
2013-05-25 23:42:00,71.3,62.1,30.23,East,89,0.0,0.0,73,0.00,,,0.00,VWS V14.01,2013-05-26 03:42:00,
2013-05-25 23:47:00,71.2,61.9,30.23,East,89,0.0,0.0,72,0.00,,,0.00,VWS V14.01,2013-05-26 03:47:00,
2013-05-25 23:52:00,71.0,61.7,30.23,East,89,0.0,0.0,72,0.00,,,0.00,VWS V14.01,2013-05-26 03:52:00,
2013-05-25 23:57:00,71.0,61.8,30.23,East,89,0.0,0.0,73,0.00,,,0.00,VWS V14.01,2013-05-26 03:57:00,